Time,TemperatureF,DewpointF,PressureIn,WindDirection,WindDirectionDegrees,WindSpeedMPH,WindSpeedGustMPH,Humidity,HourlyPrecipIn,Conditions,Clouds,dailyrainin,SoftwareType,DateUTC
2013-07-23 00:01:00,80.5,71.0,29.79,South,180,7.4,7.4,73,0.00,,,0.00,WUHU216HW,2013-07-23 05:01:00,
2013-07-23 00:06:00,80.3,71.3,29.79,South,180,6.7,9.2,74,0.00,,,0.00,WUHU216HW,2013-07-23 05:06:00,
2013-07-23 00:11:00,80.3,71.6,29.79,South,180,6.5,9.2,75,0.00,,,0.00,WUHU216HW,2013-07-23 05:11:00,
2013-07-23 00:16:00,80.1,71.5,29.79,South,180,4.0,9.8,75,0.00,,,0.00,WUHU216HW,2013-07-23 05:16:00,
2013-07-23 00:21:00,80.1,71.5,29.80,SSE,158,5.1,9.8,75,0.00,,,0.00,WUHU216HW,2013-07-23 05:21:00,
2013-07-23 00:26:00,79.9,71.6,29.80,SSW,203,4.0,6.9,76,0.00,,,0.00,WUHU216HW,2013-07-23 05:26:00,
2013-07-23 00:31:00,79.7,71.5,29.80,South,180,4.0,6.9,76,0.00,,,0.00,WUHU216HW,2013-07-23 05:31:00,
2013-07-23 00:36:00,79.7,71.5,29.80,SW,225,2.0,6.3,76,0.00,,,0.00,WUHU216HW,2013-07-23 05:36:00,
2013-07-23 00:41:00,79.6,71.7,29.80,South,180,1.6,5.8,77,0.00,,,0.00,WUHU216HW,2013-07-23 05:41:00,
2013-07-23 00:46:00,79.6,71.7,29.80,SSE,158,4.7,5.8,77,0.00,,,0.00,WUHU216HW,2013-07-23 05:46:00,
2013-07-23 00:51:00,79.4,71.9,29.80,SSW,203,3.1,5.1,78,0.00,,,0.00,WUHU216HW,2013-07-23 05:51:00,
2013-07-23 00:56:00,79.2,71.7,29.81,SSE,158,4.7,6.3,78,0.00,,,0.00,WUHU216HW,2013-07-23 05:56:00,
2013-07-23 01:01:00,79.2,71.7,29.80,SSW,203,4.7,6.3,78,0.00,,,0.00,WUHU216HW,2013-07-23 06:01:00,
2013-07-23 01:07:00,79.2,72.2,29.81,South,180,6.9,6.9,79,0.00,,,0.00,WUHU216HW,2013-07-23 06:07:00,
2013-07-23 01:12:00,79.0,72.0,29.80,SSW,203,5.4,8.1,79,0.00,,,0.00,WUHU216HW,2013-07-23 06:12:00,
2013-07-23 01:17:00,78.8,71.8,29.80,SW,225,0.4,8.1,79,0.00,,,0.00,WUHU216HW,2013-07-23 06:17:00,
2013-07-23 01:22:00,78.8,71.8,29.80,SSE,158,8.9,8.9,79,0.00,,,0.00,WUHU216HW,2013-07-23 06:22:00,
2013-07-23 01:26:00,78.8,71.8,29.80,South,180,7.6,9.2,79,0.00,,,0.00,WUHU216HW,2013-07-23 06:26:00,
2013-07-23 01:31:00,78.8,72.2,29.80,SSE,158,5.6,10.3,80,0.00,,,0.00,WUHU216HW,2013-07-23 06:31:00,
2013-07-23 01:36:00,78.7,72.0,29.80,SE,135,4.0,10.3,80,0.00,,,0.00,WUHU216HW,2013-07-23 06:36:00,
2013-07-23 01:41:00,78.7,72.0,29.80,South,180,4.7,8.1,80,0.00,,,0.00,WUHU216HW,2013-07-23 06:41:00,
2013-07-23 01:46:00,78.5,71.8,29.79,South,180,4.5,8.1,80,0.00,,,0.00,WUHU216HW,2013-07-23 06:46:00,
2013-07-23 01:52:00,78.3,72.0,29.79,South,180,4.0,6.7,81,0.00,,,0.00,WUHU216HW,2013-07-23 06:52:00,
2013-07-23 01:57:00,78.3,72.0,29.80,SSE,158,3.8,6.3,81,0.00,,,0.00,WUHU216HW,2013-07-23 06:57:00,
2013-07-23 02:01:00,78.1,71.8,29.80,SW,225,1.8,6.7,81,0.00,,,0.00,WUHU216HW,2013-07-23 07:01:00,
2013-07-23 02:07:00,78.1,71.8,29.80,South,180,3.4,6.7,81,0.00,,,0.00,WUHU216HW,2013-07-23 07:07:00,
2013-07-23 02:11:00,78.1,71.8,29.80,SSW,203,2.7,3.4,81,0.00,,,0.00,WUHU216HW,2013-07-23 07:11:00,
2013-07-23 02:17:00,78.1,71.8,29.79,SSW,203,1.3,4.5,81,0.00,,,0.00,WUHU216HW,2013-07-23 07:17:00,
2013-07-23 02:22:00,78.1,71.8,29.79,SSW,203,2.9,4.7,81,0.00,,,0.00,WUHU216HW,2013-07-23 07:22:00,
2013-07-23 02:27:00,78.1,71.8,29.79,SSE,158,2.5,4.7,81,0.00,,,0.00,WUHU216HW,2013-07-23 07:27:00,
2013-07-23 02:32:00,78.1,71.8,29.80,South,180,2.5,5.4,81,0.00,,,0.00,WUHU216HW,2013-07-23 07:32:00,
2013-07-23 02:37:00,78.1,71.8,29.79,SSW,203,1.8,5.4,81,0.00,,,0.00,WUHU216HW,2013-07-23 07:37:00,
2013-07-23 02:42:00,78.1,71.8,29.79,South,180,2.2,5.1,81,0.00,,,0.00,WUHU216HW,2013-07-23 07:42:00,
2013-07-23 02:47:00,78.1,71.8,29.79,SW,225,2.5,5.1,81,0.00,,,0.00,WUHU216HW,2013-07-23 07:47:00,
2013-07-23 02:52:00,78.1,71.8,29.79,SSE,158,1.1,3.1,81,0.00,,,0.00,WUHU216HW,2013-07-23 07:52:00,
2013-07-23 02:57:00,78.1,71.8,29.79,SW,225,1.8,3.1,81,0.00,,,0.00,WUHU216HW,2013-07-23 07:57:00,
2013-07-23 03:02:00,78.1,71.8,29.79,SSE,158,2.5,3.4,81,0.00,,,0.00,WUHU216HW,2013-07-23 08:02:00,
2013-07-23 03:07:00,78.1,71.8,29.79,South,180,1.1,3.4,81,0.00,,,0.00,WUHU216HW,2013-07-23 08:07:00,
2013-07-23 03:12:00,78.1,71.8,29.79,South,180,3.4,3.4,81,0.00,,,0.00,WUHU216HW,2013-07-23 08:12:00,
2013-07-23 03:17:00,77.9,71.6,29.79,SE,135,3.1,4.0,81,0.00,,,0.00,WUHU216HW,2013-07-23 08:17:00,
2013-07-23 03:22:00,77.8,71.5,29.79,WSW,248,7.6,7.6,81,0.00,,,0.00,WUHU216HW,2013-07-23 08:22:00,
2013-07-23 03:27:00,77.8,71.5,29.79,SSE,158,2.5,7.6,81,0.00,,,0.00,WUHU216HW,2013-07-23 08:27:00,
2013-07-23 03:32:00,77.8,71.5,29.79,South,180,3.4,4.7,81,0.00,,,0.00,WUHU216HW,2013-07-23 08:32:00,
2013-07-23 03:37:00,77.8,71.5,29.79,SW,225,3.1,4.5,81,0.00,,,0.00,WUHU216HW,2013-07-23 08:37:00,
2013-07-23 03:42:00,77.8,71.5,29.80,South,180,3.4,3.8,81,0.00,,,0.00,WUHU216HW,2013-07-23 08:42:00,
2013-07-23 03:47:00,77.8,71.5,29.80,South,180,2.0,3.6,81,0.00,,,0.00,WUHU216HW,2013-07-23 08:47:00,
2013-07-23 03:52:00,77.8,71.5,29.79,SW,225,4.0,6.0,81,0.00,,,0.00,WUHU216HW,2013-07-23 08:52:00,
2013-07-23 03:57:00,77.8,71.5,29.79,SSE,158,3.1,6.0,81,0.00,,,0.00,WUHU216HW,2013-07-23 08:57:00,
2013-07-23 04:02:00,77.8,71.5,29.80,SW,225,2.2,4.3,81,0.00,,,0.00,WUHU216HW,2013-07-23 09:02:00,
2013-07-23 04:07:00,77.8,71.5,29.80,South,180,1.6,4.3,81,0.00,,,0.00,WUHU216HW,2013-07-23 09:07:00,
2013-07-23 04:12:00,77.8,71.5,29.80,SSW,203,5.1,5.1,81,0.00,,,0.00,WUHU216HW,2013-07-23 09:12:00,
2013-07-23 04:17:00,77.6,71.3,29.80,SSE,158,1.1,5.1,81,0.00,,,0.00,WUHU216HW,2013-07-23 09:17:00,
2013-07-23 04:22:00,77.6,71.3,29.81,South,180,2.5,4.9,81,0.00,,,0.00,WUHU216HW,2013-07-23 09:22:00,
2013-07-23 04:27:00,77.6,71.3,29.80,SSW,203,1.3,4.9,81,0.00,,,0.00,WUHU216HW,2013-07-23 09:27:00,
2013-07-23 04:32:00,77.4,71.1,29.80,South,180,2.0,4.3,81,0.00,,,0.00,WUHU216HW,2013-07-23 09:32:00,
2013-07-23 04:37:00,77.4,71.1,29.80,SSE,158,2.5,4.3,81,0.00,,,0.00,WUHU216HW,2013-07-23 09:37:00,
2013-07-23 04:42:00,77.4,71.1,29.81,SW,225,1.3,4.3,81,0.00,,,0.00,WUHU216HW,2013-07-23 09:42:00,
2013-07-23 04:47:00,77.4,71.1,29.81,SSE,158,1.6,6.3,81,0.00,,,0.00,WUHU216HW,2013-07-23 09:47:00,
2013-07-23 04:52:00,77.4,71.1,29.81,SSW,203,0.9,6.3,81,0.00,,,0.00,WUHU216HW,2013-07-23 09:52:00,
2013-07-23 04:56:00,77.2,70.9,29.80,WSW,248,3.6,3.6,81,0.00,,,0.00,WUHU216HW,2013-07-23 09:56:00,
2013-07-23 05:02:00,77.2,70.9,29.80,SE,135,2.5,4.9,81,0.00,,,0.00,WUHU216HW,2013-07-23 10:02:00,
2013-07-23 05:07:00,77.0,70.7,29.80,SW,225,0.9,4.9,81,0.00,,,0.00,WUHU216HW,2013-07-23 10:07:00,
2013-07-23 05:11:00,77.0,70.7,29.80,West,270,2.2,3.1,81,0.00,,,0.00,WUHU216HW,2013-07-23 10:11:00,
2013-07-23 05:16:00,76.9,70.6,29.80,SSE,158,0.0,2.5,81,0.00,,,0.00,WUHU216HW,2013-07-23 10:16:00,
2013-07-23 05:21:00,76.7,70.4,29.80,South,180,0.0,2.7,81,0.00,,,0.00,WUHU216HW,2013-07-23 10:21:00,
2013-07-23 05:26:00,76.5,70.3,29.80,South,180,1.1,2.7,81,0.00,,,0.00,WUHU216HW,2013-07-23 10:26:00,
2013-07-23 05:31:00,76.3,70.5,29.81,South,180,1.8,2.5,82,0.00,,,0.00,WUHU216HW,2013-07-23 10:31:00,
2013-07-23 05:36:00,76.1,70.3,29.81,SW,225,1.3,2.0,82,0.00,,,0.00,WUHU216HW,2013-07-23 10:36:00,
2013-07-23 05:41:00,76.3,70.5,29.81,SSW,203,1.8,4.5,82,0.00,,,0.00,WUHU216HW,2013-07-23 10:41:00,
2013-07-23 05:46:00,76.3,70.5,29.80,SE,135,0.0,4.5,82,0.00,,,0.00,WUHU216HW,2013-07-23 10:46:00,
2013-07-23 05:51:00,76.1,70.3,29.81,SW,225,1.6,2.7,82,0.00,,,0.00,WUHU216HW,2013-07-23 10:51:00,
2013-07-23 05:56:00,76.0,70.1,29.81,SE,135,4.5,4.5,82,0.00,,,0.00,WUHU216HW,2013-07-23 10:56:00,
2013-07-23 06:01:00,76.0,70.5,29.81,SSW,203,2.5,5.4,83,0.00,,,0.00,WUHU216HW,2013-07-23 11:01:00,
2013-07-23 06:06:00,76.0,70.1,29.81,SW,225,2.0,5.4,82,0.00,,,0.00,WUHU216HW,2013-07-23 11:06:00,
2013-07-23 06:11:00,76.0,70.1,29.81,SSW,203,0.4,2.9,82,0.00,,,0.00,WUHU216HW,2013-07-23 11:11:00,
2013-07-23 06:16:00,75.8,70.3,29.80,SE,135,0.9,2.9,83,0.00,,,0.00,WUHU216HW,2013-07-23 11:16:00,
2013-07-23 06:21:00,75.8,70.3,29.81,ESE,113,2.5,2.5,83,0.00,,,0.00,WUHU216HW,2013-07-23 11:21:00,
2013-07-23 06:26:00,75.8,70.3,29.81,SW,225,0.2,2.5,83,0.00,,,0.00,WUHU216HW,2013-07-23 11:26:00,
2013-07-23 06:31:00,75.6,70.1,29.81,SSE,158,0.9,2.0,83,0.00,,,0.00,WUHU216HW,2013-07-23 11:31:00,
2013-07-23 06:36:00,75.6,70.1,29.81,SSE,158,1.1,2.0,83,0.00,,,0.00,WUHU216HW,2013-07-23 11:36:00,
2013-07-23 06:41:00,75.6,70.1,29.81,WSW,248,3.4,4.7,83,0.00,,,0.00,WUHU216HW,2013-07-23 11:41:00,
2013-07-23 06:46:00,75.6,70.1,29.81,SW,225,1.1,4.7,83,0.00,,,0.00,WUHU216HW,2013-07-23 11:46:00,
2013-07-23 06:51:00,75.6,70.1,29.81,South,180,1.1,2.5,83,0.00,,,0.00,WUHU216HW,2013-07-23 11:51:00,
2013-07-23 06:56:00,75.6,70.1,29.81,WNW,293,1.6,3.4,83,0.00,,,0.00,WUHU216HW,2013-07-23 11:56:00,
2013-07-23 07:01:00,75.4,69.9,29.81,WSW,248,3.1,3.4,83,0.00,,,0.00,WUHU216HW,2013-07-23 12:01:00,
2013-07-23 07:06:00,75.6,70.1,29.81,SW,225,2.5,4.0,83,0.00,,,0.00,WUHU216HW,2013-07-23 12:06:00,
2013-07-23 07:11:00,75.6,70.1,29.81,SSW,203,6.3,6.3,83,0.00,,,0.00,WUHU216HW,2013-07-23 12:11:00,
2013-07-23 07:16:00,75.6,70.1,29.81,South,180,0.4,6.3,83,0.00,,,0.00,WUHU216HW,2013-07-23 12:16:00,
2013-07-23 07:21:00,75.6,70.1,29.81,SW,225,2.7,4.0,83,0.00,,,0.00,WUHU216HW,2013-07-23 12:21:00,
2013-07-23 07:26:00,75.8,70.3,29.81,WSW,248,2.5,4.0,83,0.00,,,0.00,WUHU216HW,2013-07-23 12:26:00,
2013-07-23 07:31:00,76.0,70.5,29.81,SW,225,3.1,3.4,83,0.00,,,0.00,WUHU216HW,2013-07-23 12:31:00,
2013-07-23 07:36:00,76.5,70.9,29.81,WSW,248,1.8,3.4,83,0.00,,,0.00,WUHU216HW,2013-07-23 12:36:00,
2013-07-23 07:41:00,77.4,71.5,29.81,West,270,2.2,6.5,82,0.00,,,0.00,WUHU216HW,2013-07-23 12:41:00,
2013-07-23 07:46:00,78.3,72.0,29.81,SSE,158,2.7,6.5,81,0.00,,,0.00,WUHU216HW,2013-07-23 12:46:00,
2013-07-23 07:51:00,79.7,72.7,29.81,SW,225,3.1,5.6,79,0.00,,,0.00,WUHU216HW,2013-07-23 12:51:00,
2013-07-23 07:56:00,81.2,73.4,29.82,SSW,203,1.1,6.3,77,0.00,,,0.00,WUHU216HW,2013-07-23 12:56:00,
2013-07-23 08:01:00,82.3,74.0,29.82,WSW,248,0.7,6.3,76,0.00,,,0.00,WUHU216HW,2013-07-23 13:01:00,
2013-07-23 08:06:00,83.2,74.0,29.82,SW,225,2.5,3.4,74,0.00,,,0.00,WUHU216HW,2013-07-23 13:06:00,
2013-07-23 08:11:00,83.2,73.2,29.82,SW,225,4.7,5.8,72,0.00,,,0.00,WUHU216HW,2013-07-23 13:11:00,
2013-07-23 08:16:00,82.4,72.5,29.82,SW,225,2.5,5.8,72,0.00,,,0.00,WUHU216HW,2013-07-23 13:16:00,
2013-07-23 08:21:00,81.5,71.6,29.82,SW,225,2.9,4.0,72,0.00,,,0.00,WUHU216HW,2013-07-23 13:21:00,
2013-07-23 08:26:00,81.0,71.6,29.82,West,270,2.9,4.0,73,0.00,,,0.00,WUHU216HW,2013-07-23 13:26:00,
2013-07-23 08:31:00,80.6,71.7,29.82,WSW,248,3.6,4.0,74,0.00,,,0.00,WUHU216HW,2013-07-23 13:31:00,
2013-07-23 08:36:00,80.3,71.6,29.82,SW,225,4.0,6.0,75,0.00,,,0.00,WUHU216HW,2013-07-23 13:36:00,
2013-07-23 08:41:00,80.1,71.5,29.83,WSW,248,2.9,6.0,75,0.00,,,0.00,WUHU216HW,2013-07-23 13:41:00,
2013-07-23 08:46:00,80.5,71.8,29.82,SW,225,3.4,4.3,75,0.00,,,0.00,WUHU216HW,2013-07-23 13:46:00,
2013-07-23 08:51:00,80.5,71.8,29.82,SSW,203,2.2,4.5,75,0.00,,,0.00,WUHU216HW,2013-07-23 13:51:00,
2013-07-23 08:56:00,81.0,71.9,29.82,South,180,3.8,6.0,74,0.00,,,0.00,WUHU216HW,2013-07-23 13:56:00,
2013-07-23 09:01:00,82.8,73.6,29.82,SW,225,3.8,6.7,74,0.00,,,0.00,WUHU216HW,2013-07-23 14:01:00,
2013-07-23 09:06:00,84.8,74.0,29.83,SSE,158,6.0,8.9,70,0.00,,,0.00,WUHU216HW,2013-07-23 14:06:00,
2013-07-23 09:11:00,85.0,73.3,29.83,SW,225,3.8,8.9,68,0.00,,,0.00,WUHU216HW,2013-07-23 14:11:00,
2013-07-23 09:16:00,85.9,73.2,29.83,SW,225,7.2,8.5,66,0.00,,,0.00,WUHU216HW,2013-07-23 14:16:00,
2013-07-23 09:21:00,85.3,73.2,29.84,SW,225,6.0,7.2,67,0.00,,,0.00,WUHU216HW,2013-07-23 14:21:00,
2013-07-23 09:26:00,85.0,72.8,29.84,WSW,248,8.3,8.3,67,0.00,,,0.00,WUHU216HW,2013-07-23 14:26:00,
2013-07-23 09:31:00,84.6,72.0,29.84,WSW,248,4.0,8.3,66,0.00,,,0.00,WUHU216HW,2013-07-23 14:31:00,
2013-07-23 09:36:00,84.4,72.7,29.83,SW,225,2.5,7.8,68,0.00,,,0.00,WUHU216HW,2013-07-23 14:36:00,
2013-07-23 09:41:00,86.4,73.3,29.84,SW,225,6.5,9.8,65,0.00,,,0.00,WUHU216HW,2013-07-23 14:41:00,
2013-07-23 09:46:00,85.9,72.3,29.84,SSW,203,5.1,9.8,64,0.00,,,0.00,WUHU216HW,2013-07-23 14:46:00,
2013-07-23 09:51:00,85.5,72.4,29.83,WSW,248,4.7,7.8,65,0.00,,,0.00,WUHU216HW,2013-07-23 14:51:00,
2013-07-23 09:56:00,86.9,73.8,29.83,South,180,2.7,7.2,65,0.00,,,0.00,WUHU216HW,2013-07-23 14:56:00,
2013-07-23 10:01:00,88.0,74.4,29.83,SW,225,4.9,6.7,64,0.00,,,0.00,WUHU216HW,2013-07-23 15:01:00,
2013-07-23 10:06:00,89.8,74.2,29.83,SW,225,9.2,9.2,60,0.00,,,0.00,WUHU216HW,2013-07-23 15:06:00,
2013-07-23 10:11:00,91.6,74.7,29.83,SSW,203,4.0,9.2,58,0.00,,,0.00,WUHU216HW,2013-07-23 15:11:00,
2013-07-23 10:16:00,91.4,73.4,29.83,SW,225,2.2,6.5,56,0.00,,,0.00,WUHU216HW,2013-07-23 15:16:00,
2013-07-23 10:21:00,92.0,73.5,29.83,SSE,158,8.1,8.1,55,0.00,,,0.00,WUHU216HW,2013-07-23 15:21:00,
2013-07-23 10:26:00,92.3,74.4,29.83,WSW,248,6.9,8.1,56,0.00,,,0.00,WUHU216HW,2013-07-23 15:26:00,
2013-07-23 10:31:00,93.6,73.3,29.83,South,180,6.9,6.9,52,0.00,,,0.00,WUHU216HW,2013-07-23 15:31:00,
2013-07-23 10:36:00,93.6,74.4,29.83,WSW,248,9.8,9.8,54,0.00,,,0.00,WUHU216HW,2013-07-23 15:36:00,
2013-07-23 10:41:00,95.0,75.2,29.83,West,270,3.6,13.0,53,0.00,,,0.00,WUHU216HW,2013-07-23 15:41:00,
2013-07-23 10:46:00,96.7,74.4,29.83,WSW,248,2.5,13.0,49,0.00,,,0.00,WUHU216HW,2013-07-23 15:46:00,
2013-07-23 10:51:00,94.7,72.6,29.83,South,180,4.0,9.4,49,0.00,,,0.00,WUHU216HW,2013-07-23 15:51:00,
2013-07-23 10:56:00,93.1,72.2,29.83,SW,225,1.8,9.4,51,0.00,,,0.00,WUHU216HW,2013-07-23 15:56:00,
2013-07-23 11:01:00,94.0,73.1,29.83,SW,225,2.5,7.6,51,0.00,,,0.00,WUHU216HW,2013-07-23 16:01:00,
2013-07-23 11:06:00,94.1,72.1,29.83,SSE,158,8.3,8.3,49,0.00,,,0.00,WUHU216HW,2013-07-23 16:06:00,
2013-07-23 11:11:00,93.1,71.0,29.83,SE,135,4.0,8.3,49,0.00,,,0.00,WUHU216HW,2013-07-23 16:11:00,
2013-07-23 11:16:00,95.4,74.5,29.83,SW,225,4.0,7.4,51,0.00,,,0.00,WUHU216HW,2013-07-23 16:16:00,
2013-07-23 11:21:00,96.3,72.7,29.82,ESE,113,5.4,7.4,47,0.00,,,0.00,WUHU216HW,2013-07-23 16:21:00,
2013-07-23 11:26:00,95.2,71.8,29.82,SW,225,3.1,8.5,47,0.00,,,0.00,WUHU216HW,2013-07-23 16:26:00,
2013-07-23 11:31:00,95.4,72.6,29.82,SE,135,6.0,8.5,48,0.00,,,0.00,WUHU216HW,2013-07-23 16:31:00,
2013-07-23 11:36:00,95.9,72.5,29.83,South,180,2.5,6.0,47,0.00,,,0.00,WUHU216HW,2013-07-23 16:36:00,
2013-07-23 11:41:00,97.2,71.6,29.83,South,180,5.4,7.4,44,0.00,,,0.00,WUHU216HW,2013-07-23 16:41:00,
2013-07-23 11:46:00,97.9,72.9,29.83,SE,135,2.9,7.4,45,0.00,,,0.00,WUHU216HW,2013-07-23 16:46:00,
2013-07-23 11:51:00,98.3,74.5,29.83,SW,225,6.3,6.5,47,0.00,,,0.00,WUHU216HW,2013-07-23 16:51:00,
2013-07-23 11:56:00,98.6,72.2,29.83,SSW,203,5.4,6.5,43,0.00,,,0.00,WUHU216HW,2013-07-23 16:56:00,
2013-07-23 12:01:00,97.6,71.2,29.83,South,180,8.1,8.7,43,0.00,,,0.00,WUHU216HW,2013-07-23 17:01:00,
2013-07-23 12:06:00,96.7,70.4,29.83,SSE,158,6.9,8.7,43,0.00,,,0.00,WUHU216HW,2013-07-23 17:06:00,
2013-07-23 12:11:00,96.3,70.7,29.83,SE,135,3.1,8.5,44,0.00,,,0.00,WUHU216HW,2013-07-23 17:11:00,
2013-07-23 12:16:00,96.3,70.1,29.82,South,180,6.3,6.9,43,0.00,,,0.00,WUHU216HW,2013-07-23 17:16:00,
2013-07-23 12:21:00,95.0,68.9,29.82,South,180,3.1,7.4,43,0.00,,,0.00,WUHU216HW,2013-07-23 17:21:00,
2013-07-23 12:26:00,95.9,71.1,29.82,SW,225,5.8,7.4,45,0.00,,,0.00,WUHU216HW,2013-07-23 17:26:00,
2013-07-23 12:31:00,97.6,71.2,29.82,SSE,158,5.6,9.6,43,0.00,,,0.00,WUHU216HW,2013-07-23 17:31:00,
2013-07-23 12:36:00,97.2,70.2,29.82,SSE,158,8.7,9.6,42,0.00,,,0.00,WUHU216HW,2013-07-23 17:36:00,
2013-07-23 12:41:00,96.5,69.6,29.82,SW,225,3.4,8.7,42,0.00,,,0.00,WUHU216HW,2013-07-23 17:41:00,
2013-07-23 12:46:00,97.4,69.8,29.82,SSE,158,7.6,9.8,41,0.00,,,0.00,WUHU216HW,2013-07-23 17:46:00,
2013-07-23 12:52:00,96.1,69.3,29.82,ESE,113,1.8,9.8,42,0.00,,,0.00,WUHU216HW,2013-07-23 17:52:00,
2013-07-23 12:57:00,95.8,68.9,29.82,SSW,203,3.8,6.9,42,0.00,,,0.00,WUHU216HW,2013-07-23 17:57:00,
2013-07-23 13:02:00,95.9,69.8,29.82,South,180,2.0,6.9,43,0.00,,,0.00,WUHU216HW,2013-07-23 18:02:00,
2013-07-23 13:07:00,96.3,69.4,29.82,SE,135,3.4,7.2,42,0.00,,,0.00,WUHU216HW,2013-07-23 18:07:00,
2013-07-23 13:12:00,96.5,70.3,29.81,ESE,113,4.0,7.2,43,0.00,,,0.00,WUHU216HW,2013-07-23 18:12:00,
2013-07-23 13:17:00,96.5,67.4,29.81,SSE,158,1.6,7.2,39,0.00,,,0.00,WUHU216HW,2013-07-23 18:17:00,
2013-07-23 13:22:00,96.7,69.1,29.81,West,270,9.4,9.4,41,0.00,,,0.00,WUHU216HW,2013-07-23 18:22:00,
2013-07-23 13:27:00,97.4,69.8,29.81,SE,135,7.6,9.4,41,0.00,,,0.00,WUHU216HW,2013-07-23 18:27:00,
2013-07-23 13:32:00,96.1,68.6,29.81,ESE,113,3.8,10.3,41,0.00,,,0.00,WUHU216HW,2013-07-23 18:32:00,
2013-07-23 13:37:00,95.2,67.8,29.80,ESE,113,6.9,8.5,41,0.00,,,0.00,WUHU216HW,2013-07-23 18:37:00,
2013-07-23 13:42:00,95.2,68.5,29.81,SE,135,7.8,8.5,42,0.00,,,0.00,WUHU216HW,2013-07-23 18:42:00,
2013-07-23 13:47:00,95.4,68.6,29.80,South,180,6.7,10.5,42,0.00,,,0.00,WUHU216HW,2013-07-23 18:47:00,
2013-07-23 13:52:00,96.7,69.1,29.80,South,180,7.4,10.5,41,0.00,,,0.00,WUHU216HW,2013-07-23 18:52:00,
2013-07-23 13:58:00,96.1,69.3,29.80,SW,225,9.8,9.8,42,0.00,,,0.00,WUHU216HW,2013-07-23 18:58:00,
2013-07-23 14:03:00,96.3,68.1,29.79,SSW,203,3.4,9.8,40,0.00,,,0.00,WUHU216HW,2013-07-23 19:03:00,
2013-07-23 14:08:00,95.4,68.0,29.79,South,180,4.7,9.8,41,0.00,,,0.00,WUHU216HW,2013-07-23 19:08:00,
2013-07-23 14:13:00,96.5,69.6,29.79,SSW,203,5.4,9.8,42,0.00,,,0.00,WUHU216HW,2013-07-23 19:13:00,
2013-07-23 14:18:00,96.7,68.4,29.79,South,180,9.8,10.7,40,0.00,,,0.00,WUHU216HW,2013-07-23 19:18:00,
2013-07-23 14:23:00,95.9,68.4,29.79,SE,135,4.0,10.7,41,0.00,,,0.00,WUHU216HW,2013-07-23 19:23:00,
2013-07-23 14:28:00,95.0,67.6,29.79,ESE,113,5.8,10.5,41,0.00,,,0.00,WUHU216HW,2013-07-23 19:28:00,
2013-07-23 14:33:00,94.5,66.5,29.79,SSW,203,6.5,16.1,40,0.00,,,0.00,WUHU216HW,2013-07-23 19:33:00,
2013-07-23 14:39:00,94.3,66.3,29.79,SE,135,5.4,16.1,40,0.00,,,0.00,WUHU216HW,2013-07-23 19:39:00,
2013-07-23 14:44:00,94.3,66.3,29.79,SE,135,4.0,9.2,40,0.00,,,0.00,WUHU216HW,2013-07-23 19:44:00,
2013-07-23 14:49:00,94.9,67.5,29.78,SE,135,3.4,9.6,41,0.00,,,0.00,WUHU216HW,2013-07-23 19:49:00,
2013-07-23 14:54:00,94.7,66.6,29.78,WSW,248,6.3,13.0,40,0.00,,,0.00,WUHU216HW,2013-07-23 19:54:00,
2013-07-23 14:59:00,94.0,65.2,29.78,SSW,203,2.9,13.0,39,0.00,,,0.00,WUHU216HW,2013-07-23 19:59:00,
2013-07-23 15:04:00,94.0,65.2,29.78,SSW,203,4.0,10.5,39,0.00,,,0.00,WUHU216HW,2013-07-23 20:04:00,
2013-07-23 15:09:00,94.0,66.6,29.78,SW,225,7.6,8.5,41,0.00,,,0.00,WUHU216HW,2013-07-23 20:09:00,
2013-07-23 15:14:00,94.0,66.0,29.77,South,180,4.5,8.9,40,0.00,,,0.00,WUHU216HW,2013-07-23 20:14:00,
2013-07-23 15:19:00,94.3,67.0,29.77,SW,225,7.6,8.9,41,0.00,,,0.00,WUHU216HW,2013-07-23 20:19:00,
2013-07-23 15:24:00,94.3,66.3,29.77,SSE,158,4.0,8.1,40,0.00,,,0.00,WUHU216HW,2013-07-23 20:24:00,
2013-07-23 15:30:00,93.8,65.8,29.77,SSW,203,2.9,7.8,40,0.00,,,0.00,WUHU216HW,2013-07-23 20:30:00,
2013-07-23 15:35:00,94.0,66.6,29.77,WSW,248,6.5,9.8,41,0.00,,,0.00,WUHU216HW,2013-07-23 20:35:00,
2013-07-23 15:40:00,94.1,66.2,29.77,SSE,158,7.4,10.3,40,0.00,,,0.00,WUHU216HW,2013-07-23 20:40:00,
2013-07-23 15:46:00,94.0,67.3,29.77,South,180,4.5,7.8,42,0.00,,,0.00,WUHU216HW,2013-07-23 20:46:00,
2013-07-23 15:51:00,93.8,67.2,29.76,South,180,2.9,8.5,42,0.00,,,0.00,WUHU216HW,2013-07-23 20:51:00,
2013-07-23 15:56:00,93.6,67.0,29.76,SSW,203,5.4,8.5,42,0.00,,,0.00,WUHU216HW,2013-07-23 20:56:00,
2013-07-23 16:01:00,93.1,65.2,29.76,SSE,158,6.5,8.9,40,0.00,,,0.00,WUHU216HW,2013-07-23 21:01:00,
2013-07-23 16:06:00,93.1,65.8,29.76,South,180,6.7,8.9,41,0.00,,,0.00,WUHU216HW,2013-07-23 21:06:00,
2013-07-23 16:11:00,93.2,66.0,29.76,SW,225,2.7,8.9,41,0.00,,,0.00,WUHU216HW,2013-07-23 21:11:00,
2013-07-23 16:16:00,93.6,65.7,29.76,WSW,248,8.3,11.4,40,0.00,,,0.00,WUHU216HW,2013-07-23 21:16:00,
2013-07-23 16:22:00,93.6,66.3,29.75,SSW,203,4.3,11.4,41,0.00,,,0.00,WUHU216HW,2013-07-23 21:22:00,
2013-07-23 16:27:00,93.6,64.9,29.75,SSW,203,10.3,10.3,39,0.00,,,0.00,WUHU216HW,2013-07-23 21:27:00,
2013-07-23 16:32:00,93.6,65.7,29.75,SE,135,6.9,10.3,40,0.00,,,0.00,WUHU216HW,2013-07-23 21:32:00,
2013-07-23 16:37:00,93.6,66.3,29.75,WSW,248,7.8,8.9,41,0.00,,,0.00,WUHU216HW,2013-07-23 21:37:00,
2013-07-23 16:42:00,94.0,66.6,29.75,SW,225,6.9,7.8,41,0.00,,,0.00,WUHU216HW,2013-07-23 21:42:00,
2013-07-23 16:47:00,94.0,66.6,29.75,WSW,248,8.5,8.5,41,0.00,,,0.00,WUHU216HW,2013-07-23 21:47:00,
2013-07-23 16:52:00,94.0,66.0,29.75,SW,225,8.1,9.8,40,0.00,,,0.00,WUHU216HW,2013-07-23 21:52:00,
2013-07-23 16:58:00,94.0,66.0,29.74,SE,135,4.0,9.8,40,0.00,,,0.00,WUHU216HW,2013-07-23 21:58:00,
2013-07-23 17:03:00,94.0,66.6,29.74,SSW,203,3.4,7.2,41,0.00,,,0.00,WUHU216HW,2013-07-23 22:03:00,
2013-07-23 17:08:00,94.0,66.6,29.74,SW,225,5.1,7.2,41,0.00,,,0.00,WUHU216HW,2013-07-23 22:08:00,
2013-07-23 17:13:00,93.8,65.8,29.74,SE,135,3.6,5.1,40,0.00,,,0.00,WUHU216HW,2013-07-23 22:13:00,
2013-07-23 17:18:00,93.6,66.3,29.74,SE,135,4.7,8.3,41,0.00,,,0.00,WUHU216HW,2013-07-23 22:18:00,
2013-07-23 17:23:00,93.4,66.2,29.74,SE,135,1.8,8.5,41,0.00,,,0.00,WUHU216HW,2013-07-23 22:23:00,
2013-07-23 17:29:00,93.4,66.8,29.74,WSW,248,12.5,12.5,42,0.00,,,0.00,WUHU216HW,2013-07-23 22:29:00,
2013-07-23 17:34:00,93.4,66.2,29.74,South,180,6.3,12.5,41,0.00,,,0.00,WUHU216HW,2013-07-23 22:34:00,
2013-07-23 17:39:00,93.2,66.0,29.73,South,180,6.5,7.4,41,0.00,,,0.00,WUHU216HW,2013-07-23 22:39:00,
2013-07-23 17:44:00,93.2,66.6,29.73,SW,225,5.4,7.4,42,0.00,,,0.00,WUHU216HW,2013-07-23 22:44:00,
2013-07-23 17:49:00,93.2,66.6,29.73,SW,225,4.7,7.2,42,0.00,,,0.00,WUHU216HW,2013-07-23 22:49:00,
2013-07-23 17:54:00,93.2,66.6,29.73,SSW,203,3.6,7.2,42,0.00,,,0.00,WUHU216HW,2013-07-23 22:54:00,
2013-07-23 17:59:00,93.1,65.8,29.73,SSW,203,3.6,5.4,41,0.00,,,0.00,WUHU216HW,2013-07-23 22:59:00,
2013-07-23 18:04:00,92.9,66.3,29.73,West,270,4.7,7.2,42,0.00,,,0.00,WUHU216HW,2013-07-23 23:04:00,
2013-07-23 18:10:00,92.9,65.7,29.73,SSW,203,1.6,7.2,41,0.00,,,0.00,WUHU216HW,2013-07-23 23:10:00,
2013-07-23 18:15:00,92.9,66.3,29.73,SSW,203,6.3,6.3,42,0.00,,,0.00,WUHU216HW,2013-07-23 23:15:00,
2013-07-23 18:20:00,92.7,65.5,29.73,East,90,6.5,6.5,41,0.00,,,0.00,WUHU216HW,2013-07-23 23:20:00,
2013-07-23 18:25:00,92.5,65.3,29.72,SSW,203,2.5,6.9,41,0.00,,,0.00,WUHU216HW,2013-07-23 23:25:00,
2013-07-23 18:30:00,92.3,65.2,29.72,SW,225,4.7,6.9,41,0.00,,,0.00,WUHU216HW,2013-07-23 23:30:00,
2013-07-23 18:35:00,92.3,65.2,29.72,South,180,3.6,5.4,41,0.00,,,0.00,WUHU216HW,2013-07-23 23:35:00,
2013-07-23 18:40:00,92.2,65.0,29.72,South,180,2.0,8.5,41,0.00,,,0.00,WUHU216HW,2013-07-23 23:40:00,
2013-07-23 18:45:00,92.2,65.7,29.72,SE,135,2.9,8.5,42,0.00,,,0.00,WUHU216HW,2013-07-23 23:45:00,
2013-07-23 18:50:00,92.2,65.0,29.72,SW,225,3.1,4.0,41,0.00,,,0.00,WUHU216HW,2013-07-23 23:50:00,
2013-07-23 18:56:00,92.0,65.5,29.72,SSW,203,3.4,4.0,42,0.00,,,0.00,WUHU216HW,2013-07-23 23:56:00,
2013-07-23 19:01:00,91.8,64.7,29.72,SW,225,3.6,5.4,41,0.00,,,0.00,WUHU216HW,2013-07-24 00:01:00,
2013-07-23 19:06:00,91.6,64.5,29.72,South,180,3.1,5.4,41,0.00,,,0.00,WUHU216HW,2013-07-24 00:06:00,
2013-07-23 19:11:00,91.4,64.4,29.72,SSW,203,1.6,5.8,41,0.00,,,0.00,WUHU216HW,2013-07-24 00:11:00,
2013-07-23 19:16:00,91.3,64.2,29.72,SSW,203,4.0,5.8,41,0.00,,,0.00,WUHU216HW,2013-07-24 00:16:00,
2013-07-23 19:22:00,91.1,64.1,29.72,South,180,4.9,5.4,41,0.00,,,0.00,WUHU216HW,2013-07-24 00:22:00,
2013-07-23 19:27:00,90.9,63.9,29.71,SSW,203,2.9,5.4,41,0.00,,,0.00,WUHU216HW,2013-07-24 00:27:00,
2013-07-23 19:32:00,90.7,64.4,29.71,South,180,3.8,4.7,42,0.00,,,0.00,WUHU216HW,2013-07-24 00:32:00,
2013-07-23 19:37:00,90.4,64.1,29.71,South,180,2.5,4.5,42,0.00,,,0.00,WUHU216HW,2013-07-24 00:37:00,
2013-07-23 19:42:00,90.2,63.9,29.71,West,270,1.1,4.5,42,0.00,,,0.00,WUHU216HW,2013-07-24 00:42:00,
2013-07-23 19:47:00,89.8,63.5,29.71,SSW,203,1.3,2.9,42,0.00,,,0.00,WUHU216HW,2013-07-24 00:47:00,
2013-07-23 19:53:00,89.5,63.9,29.71,WSW,248,1.8,2.5,43,0.00,,,0.00,WUHU216HW,2013-07-24 00:53:00,
2013-07-23 19:58:00,89.1,63.6,29.71,SSW,203,0.9,2.5,43,0.00,,,0.00,WUHU216HW,2013-07-24 00:58:00,
2013-07-23 20:03:00,88.6,63.8,29.71,West,270,3.8,3.8,44,0.00,,,0.00,WUHU216HW,2013-07-24 01:03:00,
2013-07-23 20:08:00,88.2,64.1,29.71,SW,225,2.2,3.8,45,0.00,,,0.00,WUHU216HW,2013-07-24 01:08:00,
2013-07-23 20:13:00,87.8,63.8,29.70,SW,225,1.8,3.4,45,0.00,,,0.00,WUHU216HW,2013-07-24 01:13:00,
2013-07-23 20:19:00,87.5,64.1,29.70,SW,225,2.2,3.4,46,0.00,,,0.00,WUHU216HW,2013-07-24 01:19:00,
2013-07-23 20:24:00,87.1,63.8,29.71,WSW,248,2.5,2.9,46,0.00,,,0.00,WUHU216HW,2013-07-24 01:24:00,
2013-07-23 20:29:00,86.8,63.5,29.71,SSW,203,1.1,3.6,46,0.00,,,0.00,WUHU216HW,2013-07-24 01:29:00,
2013-07-23 20:34:00,86.6,63.3,29.71,WSW,248,0.0,3.6,46,0.00,,,0.00,WUHU216HW,2013-07-24 01:34:00,
2013-07-23 20:39:00,86.0,64.1,29.71,SW,225,2.7,2.7,48,0.00,,,0.00,WUHU216HW,2013-07-24 01:39:00,
2013-07-23 20:44:00,85.5,63.6,29.71,SW,225,1.8,2.7,48,0.00,,,0.00,WUHU216HW,2013-07-24 01:44:00,
2013-07-23 20:49:00,85.5,64.3,29.71,South,180,1.6,3.4,49,0.00,,,0.00,WUHU216HW,2013-07-24 01:49:00,
2013-07-23 20:54:00,85.3,64.1,29.71,SE,135,1.8,3.6,49,0.00,,,0.00,WUHU216HW,2013-07-24 01:54:00,
2013-07-23 20:59:00,85.3,64.7,29.71,South,180,1.8,3.6,50,0.00,,,0.00,WUHU216HW,2013-07-24 01:59:00,
2013-07-23 21:04:00,85.3,64.7,29.71,SSE,158,2.2,4.0,50,0.00,,,0.00,WUHU216HW,2013-07-24 02:04:00,
2013-07-23 21:10:00,85.0,64.4,29.71,SSE,158,3.4,4.0,50,0.00,,,0.00,WUHU216HW,2013-07-24 02:10:00,
2013-07-23 21:15:00,85.0,64.9,29.71,SSE,158,0.7,3.4,51,0.00,,,0.00,WUHU216HW,2013-07-24 02:15:00,
2013-07-23 21:20:00,84.6,64.5,29.71,South,180,0.0,1.6,51,0.00,,,0.00,WUHU216HW,2013-07-24 02:20:00,
2013-07-23 21:25:00,84.2,64.3,29.72,South,180,0.0,2.5,51,0.00,,,0.00,WUHU216HW,2013-07-24 02:25:00,
2013-07-23 21:30:00,83.9,64.9,29.72,SE,135,1.1,2.5,53,0.00,,,0.00,WUHU216HW,2013-07-24 02:30:00,
2013-07-23 21:36:00,83.9,64.9,29.72,South,180,3.6,3.6,53,0.00,,,0.00,WUHU216HW,2013-07-24 02:36:00,
2013-07-23 21:41:00,83.9,64.9,29.72,SSE,158,0.7,3.6,53,0.00,,,0.00,WUHU216HW,2013-07-24 02:41:00,
2013-07-23 21:46:00,83.7,64.7,29.73,SSE,158,2.0,3.6,53,0.00,,,0.00,WUHU216HW,2013-07-24 02:46:00,
2013-07-23 21:51:00,83.9,65.4,29.73,SSE,158,1.8,3.6,54,0.00,,,0.00,WUHU216HW,2013-07-24 02:51:00,
2013-07-23 21:56:00,83.9,64.9,29.73,SE,135,1.6,2.5,53,0.00,,,0.00,WUHU216HW,2013-07-24 02:56:00,
2013-07-23 22:01:00,83.7,65.3,29.73,South,180,2.5,2.7,54,0.00,,,0.00,WUHU216HW,2013-07-24 03:01:00,
2013-07-23 22:06:00,83.3,64.9,29.73,South,180,2.5,2.9,54,0.00,,,0.00,WUHU216HW,2013-07-24 03:06:00,
2013-07-23 22:11:00,83.2,65.3,29.73,SW,225,4.5,4.5,55,0.00,,,0.00,WUHU216HW,2013-07-24 03:11:00,
2013-07-23 22:16:00,82.8,65.4,29.73,South,180,1.8,4.5,56,0.00,,,0.00,WUHU216HW,2013-07-24 03:16:00,
2013-07-23 22:21:00,82.4,65.6,29.73,South,180,3.1,3.1,57,0.00,,,0.00,WUHU216HW,2013-07-24 03:21:00,
2013-07-23 22:27:00,82.6,66.2,29.73,South,180,4.7,6.7,58,0.00,,,0.00,WUHU216HW,2013-07-24 03:27:00,
2013-07-23 22:32:00,82.8,66.4,29.73,South,180,9.6,9.6,58,0.00,,,0.00,WUHU216HW,2013-07-24 03:32:00,
2013-07-23 22:37:00,83.2,67.3,29.73,SE,135,2.5,9.6,59,0.00,,,0.00,WUHU216HW,2013-07-24 03:37:00,
2013-07-23 22:42:00,83.2,68.3,29.73,South,180,5.4,8.7,61,0.00,,,0.00,WUHU216HW,2013-07-24 03:42:00,
2013-07-23 22:47:00,83.2,68.8,29.73,South,180,4.5,6.9,62,0.00,,,0.00,WUHU216HW,2013-07-24 03:47:00,
2013-07-23 22:52:00,83.2,68.8,29.73,SSE,158,4.3,6.9,62,0.00,,,0.00,WUHU216HW,2013-07-24 03:52:00,
2013-07-23 22:57:00,82.8,68.4,29.73,SE,135,3.4,6.3,62,0.00,,,0.00,WUHU216HW,2013-07-24 03:57:00,
2013-07-23 23:01:00,82.8,68.9,29.73,SSW,203,4.3,7.2,63,0.00,,,0.00,WUHU216HW,2013-07-24 04:01:00,
2013-07-23 23:06:00,82.6,69.6,29.73,SSW,203,4.7,8.3,65,0.00,,,0.00,WUHU216HW,2013-07-24 04:06:00,
2013-07-23 23:11:00,82.4,69.8,29.73,South,180,6.7,8.3,66,0.00,,,0.00,WUHU216HW,2013-07-24 04:11:00,
2013-07-23 23:16:00,82.4,69.8,29.73,South,180,4.9,8.5,66,0.00,,,0.00,WUHU216HW,2013-07-24 04:16:00,
2013-07-23 23:21:00,82.3,69.7,29.73,SSW,203,4.7,8.5,66,0.00,,,0.00,WUHU216HW,2013-07-24 04:21:00,
2013-07-23 23:26:00,82.1,69.9,29.74,SSW,203,7.4,7.4,67,0.00,,,0.00,WUHU216HW,2013-07-24 04:26:00,
2013-07-23 23:31:00,82.1,70.4,29.74,South,180,6.7,7.4,68,0.00,,,0.00,WUHU216HW,2013-07-24 04:31:00,
2013-07-23 23:36:00,81.9,70.3,29.74,South,180,5.8,6.7,68,0.00,,,0.00,WUHU216HW,2013-07-24 04:36:00,
2013-07-23 23:41:00,81.7,70.6,29.74,South,180,1.1,6.0,69,0.00,,,0.00,WUHU216HW,2013-07-24 04:41:00,
2013-07-23 23:46:00,81.5,70.4,29.74,South,180,2.5,6.0,69,0.00,,,0.00,WUHU216HW,2013-07-24 04:46:00,
2013-07-23 23:51:00,81.4,70.7,29.74,SSE,158,4.3,5.1,70,0.00,,,0.00,WUHU216HW,2013-07-24 04:51:00,
2013-07-23 23:56:00,81.4,71.1,29.74,SSW,203,0.7,5.1,71,0.00,,,0.00,WUHU216HW,2013-07-24 04:56:00,